Weather Roundup
Issued by NWS Springfield, MO

Home | Current Version | Previous Version | Text Only | Print | Product List | Glossary On
Versions: 1 2 3 4 5 6 7 8 9 10 11 12 13 14 15 16 17 18 19 20 21 22 23 24 25 26 27 28 29 30 31 32 33 34 35 36 37 38 39 40 41 42 43 44 45 46 47 48 49 50
000
NZUS99 KSGF 250857
HRRSGF

HOURLY WEATHER
NATIONAL WEATHER SERVICE SPRINGFIELD MO
400 AM CDT TUE APR 25 2017

......SGF CWA......

CITY           SKY/WX    TMP DP  RH WIND       PRES   REMARKS
SPRINGFIELD    CLOUDY    56  41  57 SE12      29.62F
JOPLIN         CLEAR     57  43  59 SE10      29.58F
ROLLA          CLOUDY    54  45  71 S9        29.66S

......SURROUNDING SGF CWA......

CITY           SKY/WX    TMP DP  RH WIND       PRES   REMARKS
CHANUTE        CLEAR     58  46  64 SE12      29.53F
PARSONS        CLEAR     59  47  64 SE6       29.54F
COFFEYVILLE    PTCLDY    57  47  69 SE12      29.53F
EMPORIA        MOCLDY    59  49  69 S10       29.48F
HARRISON AR    CLEAR     52  42  69 E6        29.66F
NEAR YELLVILLE CLEAR    N/A N/A N/A CALM      29.64F

......KANSAS AND MISSOURI......

CITY           SKY/WX    TMP DP  RH WIND       PRES   REMARKS
KANSAS CTY INT CLOUDY    62  46  55 S16       29.51F
DOWNTOWN KC    CLOUDY    63  45  51 S9        29.51F
COLUMBIA       PTCLDY    53  41  63 S8        29.64F
SEDALIA        CLOUDY    59  41  51 S10       29.60F
ST JOSEPH      PTCLDY    61  48  62 MISG      29.50F
ST LOUIS       PTCLDY    59  46  62 S5        29.69S
WICHITA        PTCLDY    60  50  69 SE16G23   29.40F
TOPEKA         CLOUDY    63  49  60 S12       29.51R
OLATHE         PTCLDY    59  47  64 S10       29.51F

......TENNESSEE......

CITY           SKY/WX    TMP DP  RH WIND       PRES   REMARKS
MEMPHIS        CLEAR     56  54  93 S6        29.75S
NASHVILLE      CLEAR     54  53  97 CALM      29.78R

......ARKANSAS.......

CITY           SKY/WX    TMP DP  RH WIND       PRES   REMARKS
FAYETTEVILLE   PTCLDY    57  44  62 SE6       29.62F
FT SMITH       CLOUDY    55  45  68 NE5       29.62F
LITTLE ROCK    PTCLDY    53  48  83 CALM      29.71F

......OKLAHOMA.......

CITY           SKY/WX    TMP DP  RH WIND       PRES   REMARKS
TULSA          PTCLDY    63  49  60 SE14      29.49F
PONCA CITY     PTCLDY    61  49  64 SE23      29.40F
MCALESTER      MOCLDY    66  49  54 S10G21    29.57F
OKLAHOMA CITY  MOCLDY    62  51  67 S20       29.44F

......IOWA............

CITY           SKY/WX    TMP DP  RH WIND       PRES   REMARKS
DES MOINES     PTCLDY    58  38  47 S7        29.53S
QUAD CITIES    CLOUDY    55  33  43 S13       29.62F

......ILLINOIS........

CITY           SKY/WX    TMP DP  RH WIND       PRES   REMARKS
QUINCY         PTCLDY    57  41  55 S8        29.63F
CHICAGO        CLEAR     54  44  69 SE7       29.71F




USA.gov is the U.S. government's official web portal to all federal, state and local government web resources and services.